Location: Unspecified
(0.0000°N, 0.0000°E)
Time: 11:42:17
(UTC+00:00)

Explorer 11/Cluster Stage 4 - Pass Details

Date: 08 October 2020
Orbit: 467 x 1258 km, 28.8° (Epoch: 28 October)

Event Time Altitude Azimuth Distance (km) Brightness Sun altitude
Rises 06:30:20 0° 271° (W) 3,889 9.5 10.7°
Reaches altitude 10° 06:33:32 10° 258° (WSW) 3,037 9.0 11.4°
Maximum altitude 06:39:41 26° 205° (SSW) 2,218 8.8 13.0°
Drops below altitude 10° 06:46:14 10° 153° (SSE) 3,233 10.3 14.6°
Sets 06:49:47 0° 140° (SE) 4,188 11.0 15.5°
